| time (UTC) | temp C | wind direction | speed KPH | gust KPH | rain 1hr cm | rain 24hr cm | rain mn cm | humidity % | barometer mb |
| 20260507050518 | 13 | 199 | 3.2 | 3.2 | 0.00 | 0.20 | 0.00 | 97 | 1006.6 |
| 20260507045518 | 13 | 194 | 1.6 | 3.2 | 0.00 | 0.20 | 0.00 | 97 | 1006.6 |
| 20260507044519 | 13 | 165 | 4.8 | 6.4 | 0.00 | 0.20 | 0.00 | 97 | 1006.6 |
| 20260507043519 | 13 | 147 | 0.0 | 1.6 | 0.00 | 0.20 | 0.00 | 97 | 1006.7 |
| 20260507042519 | 13 | 164 | 3.2 | 4.8 | 0.00 | 0.20 | 0.00 | 97 | 1006.4 |
| 20260507041519 | 13 | 147 | 1.6 | 1.6 | 0.00 | 0.20 | 0.00 | 97 | 1006.4 |
| 20260507040519 | 13 | 199 | 1.6 | 4.8 | 0.00 | 0.20 | 0.00 | 97 | 1006.5 |
| 20260507035516 | 13 | 227 | 3.2 | 8.0 | 0.00 | 0.20 | 0.20 | 97 | 1006.4 |
| 20260507034520 | 13 | 212 | 4.8 | 8.0 | 0.00 | 0.20 | 0.20 | 97 | 1006.6 |
| 20260507033520 | 13 | 194 | 6.4 | 8.0 | 0.00 | 0.20 | 0.20 | 97 | 1006.8 |
| 20260507032517 | 13 | 172 | 3.2 | 3.2 | 0.00 | 0.20 | 0.20 | 97 | 1006.7 |
| 20260507031518 | 13 | 167 | 3.2 | 4.8 | 0.00 | 0.20 | 0.20 | 97 | 1006.7 |
| 20260507030517 | 13 | 189 | 4.8 | 9.7 | 0.00 | 0.20 | 0.20 | 97 | 1006.6 |
| 20260507025520 | 13 | 205 | 3.2 | 6.4 | 0.00 | 0.20 | 0.20 | 97 | 1006.5 |
| 20260507024521 | 13 | 173 | 3.2 | 6.4 | 0.00 | 0.20 | 0.20 | 97 | 1006.5 |
| 20260507023518 | 13 | 187 | 3.2 | 8.0 | 0.00 | 0.20 | 0.20 | 97 | 1006.6 |
| 20260507022518 | 13 | 182 | 6.4 | 11.3 | 0.00 | 0.20 | 0.20 | 97 | 1006.4 |
| 20260507021519 | 13 | 191 | 4.8 | 9.7 | 0.00 | 0.20 | 0.20 | 97 | 1006.7 |
| 20260507020518 | 13 | 182 | 6.4 | 11.3 | 0.00 | 0.20 | 0.20 | 97 | 1006.6 |
| 20260507015515 | 13 | 202 | 3.2 | 6.4 | 0.00 | 0.20 | 0.20 | 97 | 1006.8 |
| 20260507014518 | 13 | 187 | 3.2 | 6.4 | 0.00 | 0.20 | 0.20 | 97 | 1007.0 |
| 20260507013518 | 13 | 214 | 6.4 | 9.7 | 0.00 | 0.20 | 0.20 | 97 | 1006.9 |
| 20260507012519 | 13 | 182 | 6.4 | 9.7 | 0.00 | 0.20 | 0.20 | 97 | 1007.1 |
| 20260507011519 | 13 | 201 | 8.0 | 11.3 | 0.00 | 0.20 | 0.20 | 97 | 1007.0 |
| 20260507010516 | 13 | 176 | 6.4 | 9.7 | 0.00 | 0.20 | 0.20 | 97 | 1007.1 |
| 20260507005539 | 13 | 156 | 3.2 | 6.4 | 0.00 | 0.20 | 0.20 | 97 | 1007.1 |
| 20260507004520 | 13 | 207 | 4.8 | 6.4 | 0.03 | 0.20 | 0.20 | 97 | 1007.1 |
| 20260507003520 | 13 | 196 | 8.0 | 12.9 | 0.03 | 0.20 | 0.20 | 97 | 1007.0 |
| 20260507002520 | 13 | 182 | 9.7 | 17.7 | 0.03 | 0.20 | 0.20 | 97 | 1007.0 |
| 20260507001517 | 13 | 198 | 4.8 | 11.3 | 0.03 | 0.20 | 0.20 | 97 | 1007.1 |
| 20260507000517 | 13 | 196 | 6.4 | 8.0 | 0.03 | 0.20 | 0.20 | 97 | 1007.1 |
| 20260506235541 | 13 | 183 | 8.0 | 11.3 | 0.03 | 0.20 | 0.20 | 96 | 1007.0 |
| 20260506234520 | 13 | 168 | 6.4 | 9.7 | 0.00 | 0.18 | 0.18 | 96 | 1007.0 |
| 20260506233517 | 13 | 214 | 11.3 | 14.5 | 0.00 | 0.18 | 0.18 | 96 | 1007.1 |
| 20260506232518 | 12 | 203 | 4.8 | 8.0 | 0.00 | 0.18 | 0.18 | 96 | 1007.2 |
| 20260506231518 | 12 | 202 | 6.4 | 9.7 | 0.03 | 0.18 | 0.18 | 96 | 1007.3 |
| 20260506230518 | 12 | 183 | 12.9 | 19.3 | 0.03 | 0.18 | 0.18 | 96 | 1007.2 |
| 20260506225518 | 13 | 210 | 4.8 | 6.4 | 0.03 | 0.18 | 0.18 | 96 | 1007.2 |
| 20260506224518 | 13 | 193 | 6.4 | 8.0 | 0.03 | 0.18 | 0.18 | 96 | 1007.0 |
| 20260506223519 | 13 | 176 | 6.4 | 11.3 | 0.03 | 0.18 | 0.18 | 96 | 1007.2 |
| 20260506222519 | 13 | 192 | 9.7 | 14.5 | 0.00 | 0.18 | 0.18 | 95 | 1007.3 |
| 20260506221519 | 13 | 178 | 6.4 | 11.3 | 0.00 | 0.15 | 0.15 | 95 | 1007.6 |
| 20260506220516 | 13 | 184 | 8.0 | 11.3 | 0.00 | 0.15 | 0.15 | 95 | 1007.6 |
| 20260506215516 | 13 | 193 | 6.4 | 12.9 | 0.00 | 0.15 | 0.15 | 94 | 1007.7 |
| 20260506214520 | 13 | 178 | 8.0 | 14.5 | 0.00 | 0.15 | 0.15 | 93 | 1007.7 |
| 20260506213519 | 13 | 184 | 4.8 | 9.7 | 0.00 | 0.15 | 0.15 | 93 | 1007.8 |
| 20260506212537 | 13 | 182 | 4.8 | 11.3 | 0.00 | 0.15 | 0.15 | 93 | 1007.9 |
| 20260506211518 | 13 | 182 | 3.2 | 8.0 | 0.00 | 0.15 | 0.15 | 93 | 1007.9 |
| 20260506210540 | 13 | 183 | 12.9 | 17.7 | 0.00 | 0.15 | 0.15 | 92 | 1008.0 |
| 20260506205521 | 13 | 197 | 14.5 | 20.9 | 0.05 | 0.15 | 0.15 | 92 | 1008.1 |
| 20260506204518 | 13 | 177 | 9.7 | 14.5 | 0.08 | 0.15 | 0.15 | 92 | 1008.0 |
| 20260506203517 | 14 | 183 | 9.7 | 17.7 | 0.13 | 0.15 | 0.15 | 92 | 1008.2 |
| 20260506202538 | 14 | 206 | 9.7 | 16.1 | 0.15 | 0.15 | 0.15 | 92 | 1008.1 |
| 20260506201538 | 14 | 206 | 8.0 | 11.3 | 0.15 | 0.15 | 0.15 | 92 | 1008.3 |
| 20260506200518 | 15 | 189 | 9.7 | 12.9 | 0.15 | 0.15 | 0.15 | 92 | 1008.2 |
| 20260506195519 | 15 | 204 | 11.3 | 22.5 | 0.10 | 0.10 | 0.10 | 89 | 1008.3 |
| 20260506194518 | 15 | 204 | 8.0 | 12.9 | 0.08 | 0.08 | 0.08 | 86 | 1008.6 |
| 20260506193518 | 16 | 177 | 6.4 | 11.3 | 0.03 | 0.03 | 0.03 | 84 | 1008.6 |
| 20260506192519 | 16 | 191 | 8.0 | 11.3 | 0.00 | 0.00 | 0.00 | 80 | 1008.6 |
| 20260506191519 | 16 | 171 | 12.9 | 24.1 | 0.00 | 0.00 | 0.00 | 77 | 1008.2 |
| 20260506190519 | 16 | 190 | 8.0 | 12.9 | 0.00 | 0.00 | 0.00 | 76 | 1008.2 |
| 20260506185539 | 16 | 184 | 8.0 | 17.7 | 0.00 | 0.00 | 0.00 | 76 | 1008.1 |
| 20260506184540 | 16 | 181 | 6.4 | 11.3 | 0.00 | 0.00 | 0.00 | 76 | 1008.1 |
| 20260506183519 | 17 | 193 | 8.0 | 12.9 | 0.00 | 0.00 | 0.00 | 75 | 1008.4 |
| 20260506182517 | 17 | 191 | 11.3 | 14.5 | 0.00 | 0.00 | 0.00 | 74 | 1008.5 |
| 20260506181538 | 17 | 181 | 6.4 | 11.3 | 0.00 | 0.00 | 0.00 | 73 | 1008.3 |
| 20260506180538 | 17 | 170 | 11.3 | 17.7 | 0.00 | 0.00 | 0.00 | 73 | 1008.5 |
| 20260506175517 | 18 | 201 | 11.3 | 17.7 | 0.00 | 0.00 | 0.00 | 72 | 1008.8 |
| 20260506173517 | 18 | 206 | 9.7 | 14.5 | 0.00 | 0.00 | 0.00 | 71 | 1008.8 |
| 20260506172517 | 18 | 180 | 9.7 | 16.1 | 0.00 | 0.00 | 0.00 | 70 | 1008.5 |
| 20260506171538 | 18 | 172 | 9.7 | 16.1 | 0.00 | 0.00 | 0.00 | 71 | 1008.8 |
| 20260506170521 | 18 | 171 | 14.5 | 19.3 | 0.00 | 0.00 | 0.00 | 70 | 1007.3 |
| 20260506165518 | 18 | 167 | 8.0 | 12.9 | 0.00 | 0.00 | 0.00 | 72 | 1008.4 |
| 20260506164518 | 17 | 185 | 11.3 | 17.7 | 0.00 | 0.00 | 0.00 | 72 | 1008.8 |
| 20260506163518 | 18 | 174 | 9.7 | 14.5 | 0.00 | 0.00 | 0.00 | 71 | 1008.9 |
| 20260506162519 | 17 | 195 | 8.0 | 11.3 | 0.00 | 0.00 | 0.00 | 71 | 1008.8 |
| 20260506161539 | 18 | 175 | 14.5 | 19.3 | 0.00 | 0.00 | 0.00 | 72 | 1009.3 |
| 20260506160519 | 18 | 173 | 9.7 | 19.3 | 0.00 | 0.00 | 0.00 | 71 | 1009.2 |
| 20260506155519 | 18 | 192 | 6.4 | 11.3 | 0.00 | 0.00 | 0.00 | 71 | 1009.4 |
| 20260506154519 | 18 | 190 | 6.4 | 12.9 | 0.00 | 0.00 | 0.00 | 72 | 1009.1 |
| 20260506153519 | 18 | 180 | 8.0 | 16.1 | 0.00 | 0.00 | 0.00 | 70 | 1008.8 |
| 20260506152517 | 18 | 187 | 14.5 | 19.3 | 0.00 | 0.00 | 0.00 | 71 | 1009.1 |
| 20260506151517 | 17 | 177 | 12.9 | 17.7 | 0.00 | 0.00 | 0.00 | 71 | 1009.5 |
| 20260506150520 | 17 | 168 | 11.3 | 14.5 | 0.00 | 0.00 | 0.00 | 73 | 1009.5 |
| 20260506145520 | 17 | 172 | 8.0 | 16.1 | 0.00 | 0.00 | 0.00 | 73 | 1009.7 |
| 20260506144540 | 17 | 180 | 9.7 | 14.5 | 0.00 | 0.00 | 0.00 | 72 | 1009.7 |
| 20260506143517 | 17 | 184 | 12.9 | 25.7 | 0.00 | 0.00 | 0.00 | 73 | 1009.7 |
| 20260506142558 | 17 | 216 | 9.7 | 16.1 | 0.00 | 0.00 | 0.00 | 72 | 1009.5 |
| 20260506141518 | 18 | 173 | 11.3 | 16.1 | 0.00 | 0.00 | 0.00 | 71 | 1009.3 |
| 20260506140518 | 18 | 163 | 9.7 | 14.5 | 0.00 | 0.00 | 0.00 | 70 | 1009.4 |
| 20260506135518 | 18 | 181 | 11.3 | 14.5 | 0.00 | 0.00 | 0.00 | 69 | 1009.0 |
| 20260506134518 | 18 | 184 | 11.3 | 19.3 | 0.00 | 0.00 | 0.00 | 69 | 1008.8 |
| 20260506133518 | 17 | 167 | 6.4 | 12.9 | 0.00 | 0.00 | 0.00 | 71 | 1009.2 |
| 20260506132519 | 17 | 184 | 8.0 | 14.5 | 0.00 | 0.00 | 0.00 | 74 | 1009.5 |
| 20260506131519 | 16 | 203 | 6.4 | 9.7 | 0.00 | 0.00 | 0.00 | 76 | 1009.7 |
| 20260506130540 | 16 | 178 | 6.4 | 12.9 | 0.00 | 0.00 | 0.00 | 77 | 1010.0 |
| 20260506125519 | 16 | 192 | 4.8 | 8.0 | 0.00 | 0.00 | 0.00 | 79 | 1010.1 |
| 20260506124519 | 15 | 165 | 4.8 | 8.0 | 0.00 | 0.00 | 0.00 | 81 | 1009.9 |
| 20260506123519 | 15 | 173 | 12.9 | 17.7 | 0.00 | 0.00 | 0.00 | 82 | 1010.0 |
| 20260506122516 | 15 | 192 | 3.2 | 6.4 | 0.00 | 0.00 | 0.00 | 82 | 1009.5 |
| 20260506121517 | 15 | 195 | 12.9 | 17.7 | 0.00 | 0.00 | 0.00 | 84 | 1010.0 |
| 20260506120520 | 14 | 187 | 11.3 | 16.1 | 0.00 | 0.00 | 0.00 | 85 | 1011.1 |
| 20260506115520 | 15 | 198 | 12.9 | 16.1 | 0.00 | 0.00 | 0.00 | 84 | 1010.7 |
| 20260506114518 | 14 | 199 | 8.0 | 12.9 | 0.00 | 0.00 | 0.00 | 85 | 1010.6 |
| 20260506113518 | 14 | 204 | 9.7 | 14.5 | 0.00 | 0.00 | 0.00 | 85 | 1010.5 |
| 20260506112537 | 13 | 189 | 6.4 | 12.9 | 0.00 | 0.00 | 0.00 | 87 | 1010.6 |
| 20260506111538 | 13 | 182 | 4.8 | 9.7 | 0.00 | 0.00 | 0.00 | 88 | 1010.9 |
| 20260506110521 | 13 | 190 | 3.2 | 4.8 | 0.00 | 0.00 | 0.00 | 89 | 1011.0 |
| 20260506105518 | 13 | 161 | 6.4 | 9.7 | 0.00 | 0.00 | 0.00 | 89 | 1011.1 |
| 20260506104519 | 13 | 191 | 3.2 | 6.4 | 0.00 | 0.00 | 0.00 | 89 | 1011.1 |
| 20260506103519 | 13 | 175 | 6.4 | 14.5 | 0.00 | 0.00 | 0.00 | 90 | 1011.1 |
| 20260506102539 | 13 | 171 | 6.4 | 9.7 | 0.00 | 0.00 | 0.00 | 90 | 1011.1 |
| 20260506101536 | 13 | 156 | 4.8 | 11.3 | 0.00 | 0.00 | 0.00 | 91 | 1011.1 |
| 20260506100517 | 13 | 182 | 4.8 | 6.4 | 0.00 | 0.00 | 0.00 | 91 | 1011.1 |
| 20260506095536 | 13 | 172 | 8.0 | 11.3 | 0.00 | 0.00 | 0.00 | 91 | 1011.0 |
| 20260506094520 | 13 | 191 | 3.2 | 4.8 | 0.00 | 0.00 | 0.00 | 90 | 1011.1 |
| 20260506093518 | 13 | 176 | 4.8 | 6.4 | 0.00 | 0.00 | 0.00 | 90 | 1011.1 |
| 20260506092557 | 13 | 160 | 6.4 | 12.9 | 0.00 | 0.00 | 0.00 | 90 | 1011.1 |
| 20260506091517 | 13 | 172 | 4.8 | 8.0 | 0.00 | 0.00 | 0.00 | 89 | 1011.2 |
| 20260506090521 | 13 | 184 | 4.8 | 8.0 | 0.00 | 0.00 | 0.00 | 89 | 1011.2 |
| 20260506085602 | 13 | 172 | 4.8 | 6.4 | 0.00 | 0.00 | 0.00 | 89 | 1011.2 |
| 20260506084518 | 13 | 165 | 3.2 | 6.4 | 0.00 | 0.00 | 0.00 | 89 | 1011.3 |
| 20260506083538 | 13 | 169 | 4.8 | 8.0 | 0.00 | 0.00 | 0.00 | 88 | 1011.4 |
| 20260506082518 | 13 | 174 | 4.8 | 8.0 | 0.00 | 0.00 | 0.00 | 88 | 1011.3 |
| 20260506081518 | 13 | 163 | 4.8 | 8.0 | 0.00 | 0.00 | 0.00 | 87 | 1011.4 |
| 20260506080518 | 13 | 178 | 4.8 | 8.0 | 0.00 | 0.00 | 0.00 | 87 | 1011.5 |
| 20260506073520 | 13 | 197 | 4.8 | 8.0 | 0.00 | 0.00 | 0.00 | 86 | 1011.2 |
| 20260506072539 | 13 | 197 | 8.0 | 9.7 | 0.00 | 0.00 | 0.00 | 85 | 1011.3 |
| 20260506071516 | 14 | 183 | 8.0 | 11.3 | 0.00 | 0.00 | 0.00 | 84 | 1011.1 |
| 20260506070520 | 14 | 194 | 6.4 | 11.3 | 0.00 | 0.00 | 0.00 | 84 | 1011.2 |
| 20260506061517 | 15 | 211 | 9.7 | 16.1 | 0.00 | 0.00 | 0.00 | 81 | 1010.9 |
| 20260506060517 | 15 | 178 | 6.4 | 12.9 | 0.00 | 0.00 | 0.00 | 81 | 1010.9 |